H1 CPF 2 NER 2025 4 23 9 113 01 glonass143 H2 2007501 9143 46805 2025 4 23 0 0 0 2025 4 26 23 45 0 900 1 1 0 0 0 1 H9 10 0 60788 0.00000 0 21231735.038 4597797.993 13397054.139 10 0 60788 900.00000 0 19427055.841 4693413.396 15873540.565 10 0 60788 1800.00000 0 17353425.911 4972988.770 18042230.738 10 0 60788 2700.00000 0 15068172.625 5463886.181 19861081.044 10 0 60788 3600.00000 0 12634674.374 6182337.451 21294819.687 10 0 60788 4500.00000 0 10119886.059 7132564.662 22315626.152 10 0 60788 5400.00000 0 7591729.897 8306415.301 22903668.130 10 0 60788 6300.00000 0 5116458.958 9683528.317 23047485.961 10 0 60788 7200.00000 0 2756101.947 11232025.324 22744217.405 10 0 60788 8100.00000 0 566094.259 12909699.437 21999658.359 10 0 60788 9000.00000 0 -1406807.261 14665653.570 20828157.967 10 0 60788 9900.00000 0 -3126240.016 16442321.219 19252349.501 10 0 60788 10800.00000 0 -4567511.159 18177786.627 17302721.341 10 0 60788 11700.00000 0 -5718380.302 19808308.434 15017035.333 10 0 60788 12600.00000 0 -6579317.186 21270941.947 12439602.752 10 0 60788 13500.00000 0 -7163223.902 22506150.522 9620430.955 10 0 60788 14400.00000 0 -7494633.699 23460296.501 6614256.561 10 0 60788 15300.00000 0 -7608420.405 24087906.601 3479483.495 10 0 60788 16200.00000 0 -7548073.379 24353615.787 277046.471 10 0 60788 17100.00000 0 -7363611.385 24233706.835 -2930777.764 10 0 60788 18000.00000 0 -7109224.419 23717179.665 -6081587.662 10 0 60788 18900.00000 0 -6840744.175 22806304.371 -9114078.108 10 0 60788 19800.00000 0 -6613051.365 21516633.693 -11969240.985 10 0 60788 20700.00000 0 -6477530.821 19876473.665 -14591520.710 10 0 60788 21600.00000 0 -6479683.283 17925834.195 -16929901.463 10 0 60788 22500.00000 0 -6656996.034 15714903.353 -18938904.321 10 0 60788 23400.00000 0 -7037163.394 13302109.278 -20579474.499 10 0 60788 24300.00000 0 -7636733.075 10751850.918 -21819741.332 10 0 60788 25200.00000 0 -8460236.170 8131992.541 -22635636.382 10 0 60788 26100.00000 0 -9499837.970 5511226.699 -23011357.969 10 0 60788 27000.00000 0 -10735524.686 2956415.492 -22939673.592 10 0 60788 27900.00000 0 -12135818.514 530020.560 -22422054.896 10 0 60788 28800.00000 0 -13658991.244 -1712271.707 -21468643.052 10 0 60788 29700.00000 0 -15254725.619 -3723631.785 -20098045.711 10 0 60788 30600.00000 0 -16866154.939 -5467789.898 -18336969.777 10 0 60788 31500.00000 0 -18432195.448 -6920290.595 -16219697.393 10 0 60788 32400.00000 0 -19890073.841 -8069248.294 -13787415.475 10 0 60788 33300.00000 0 -21177943.970 -8915573.986 -11087411.897 10 0 60788 34200.00000 0 -22237483.037 -9472665.400 -8172154.040 10 0 60788 35100.00000 0 -23016358.452 -9765575.441 -5098267.707 10 0 60788 36000.00000 0 -23470461.892 -9829695.523 -1925436.332 10 0 60788 36900.00000 0 -23565816.863 -9709010.652 1284757.922 10 0 60788 37800.00000 0 -23280079.720 -9454001.028 4470028.576 10 0 60788 38700.00000 0 -22603571.214 -9119279.606 7568591.434 10 0 60788 39600.00000 0 -21539795.415 -8761066.057 10520359.882 10 0 60788 40500.00000 0 -20105424.161 -8434604.089 13268105.805 10 0 60788 41400.00000 0 -18329747.578 -8191631.310 15758563.895 10 0 60788 42300.00000 0 -16253613.405 -8078008.349 17943458.296 10 0 60788 43200.00000 0 -13927898.904 -8131607.073 19780432.349 10 0 60788 44100.00000 0 -11411578.471 -8380546.796 21233864.060 10 0 60788 45000.00000 0 -8769466.593 -8841852.683 22275552.231 10 0 60788 45900.00000 0 -6069729.011 -9520593.017 22885260.615 10 0 60788 46800.00000 0 -3381264.338 -10409532.029 23051110.057 10 0 60788 47700.00000 0 -771063.676 -11489313.647 22769811.296 10 0 60788 48600.00000 0 1698343.398 -12729169.538 22046733.891 10 0 60788 49500.00000 0 3971251.581 -14088123.015 20895809.558 10 0 60788 50400.00000 0 6000854.180 -15516639.754 19339271.173 10 0 60788 51300.00000 0 7750943.607 -16958657.468 17407231.589 10 0 60788 52200.00000 0 9197167.893 -18353910.667 15137109.376 10 0 60788 53100.00000 0 10327791.280 -19640453.873 12572911.589 10 0 60788 54000.00000 0 11143927.466 -20757277.880 9764386.498 10 0 60788 54900.00000 0 11659236.084 -21646909.249 6766061.973 10 0 60788 55800.00000 0 11899095.449 -22257883.359 3636187.752 10 0 60788 56700.00000 0 11899286.834 -22546986.203 435602.068 10 0 60788 57600.00000 0 11704246.262 -22481169.476 -2773455.119 10 0 60788 58500.00000 0 11364958.329 -22039057.062 -5928558.579 10 0 60788 59400.00000 0 10936581.947 -21211978.134 -8968319.514 10 0 60788 60300.00000 0 10475909.443 -20004482.129 -11833587.796 10 0 60788 61200.00000 0 10038767.600 -18434312.844 -14468610.371 10 0 60788 62100.00000 0 9677471.717 -16531841.863 -16822122.444 10 0 60788 63000.00000 0 9438441.379 -14338984.492 -18848349.600 10 0 60788 63900.00000 0 9360079.641 -11907643.278 -20507900.909 10 0 60788 64800.00000 0 9471005.899 -9297744.063 -21768535.569 10 0 60788 65700.00000 0 9788717.558 -6574946.553 -22605788.300 10 0 60788 66600.00000 0 10318737.222 -3808124.898 -23003441.660 10 0 60788 67500.00000 0 11054281.510 -1066723.149 -22953836.598 10 0 60788 68400.00000 0 11976465.435 1581904.592 -22458015.727 10 0 60788 69300.00000 0 13055033.748 4075059.081 -21525697.041 10 0 60788 70200.00000 0 14249588.359 6357059.936 -20175079.065 10 0 60788 71100.00000 0 15511260.228 8381311.350 -18432481.519 10 0 60788 72000.00000 0 16784755.317 10111984.668 -16331828.753 10 0 60788 72900.00000 0 18010688.619 11525249.183 -13913986.156 10 0 60788 73800.00000 0 19128108.079 12610001.330 -11225962.473 10 0 60788 74700.00000 0 20077102.286 13368063.576 -8319993.692 10 0 60788 75600.00000 0 20801382.275 13813846.412 -5252526.356 10 0 60788 76500.00000 0 21250728.819 13973489.310 -2083120.182 10 0 60788 77400.00000 0 21383202.294 13883518.395 1126708.518 10 0 60788 78300.00000 0 21167022.114 13589078.595 4314680.009 10 0 60788 79200.00000 0 20582036.666 13141815.915 7418957.648 10 0 60788 80100.00000 0 19620721.926 12597499.929 10379344.224 10 0 60788 81000.00000 0 18288666.673 12013487.294 13138445.036 10 0 60788 81900.00000 0 16604523.678 11446133.438 15642775.408 10 0 60788 82800.00000 0 14599428.434 10948261.536 17843791.575 10 0 60788 83700.00000 0 12315909.163 10566795.211 19698825.539 10 0 60788 84600.00000 0 9806332.750 10340654.366 21171906.491 10 0 60788 85500.00000 0 7130950.409 10299002.400 22234453.569 10 0 60789 0.00000 0 4355623.462 10459918.305 22865827.197 10 0 60789 900.00000 0 1549320.945 10829549.603 23053729.073 10 0 60789 1800.00000 0 -1218504.681 11401781.723 22794442.632 10 0 60789 2700.00000 0 -3880561.079 12158438.568 22092910.396 10 0 60789 3600.00000 0 -6374266.782 13070006.560 20962645.469 10 0 60789 4500.00000 0 -8644105.755 14096852.855 19425478.662 10 0 60789 5400.00000 0 -10643688.664 15190887.740 17511145.164 10 0 60789 6300.00000 0 -12337435.783 16297602.522 15256717.760 10 0 60789 7200.00000 0 -13701811.878 17358398.148 12705896.473 10 0 60789 8100.00000 0 -14726061.870 18313107.298 9908167.477 10 0 60789 9000.00000 0 -15412416.702 19102604.011 6917846.768 10 0 60789 9900.00000 0 -15775760.994 19671390.725 3793026.745 10 0 60789 10800.00000 0 -15842776.736 19970053.082 594446.038 10 0 60789 11700.00000 0 -15650599.427 19957477.982 -2615695.226 10 0 60789 12600.00000 0 -15245043.916 19602740.078 -5774951.077 10 0 60789 13500.00000 0 -14678475.553 18886575.755 -8821851.815 10 0 60789 14400.00000 0 -14007417.495 17802380.992 -11697107.875 10 0 60789 15300.00000 0 -13289996.314 16356689.778 -14344771.039 10 0 60789 16200.00000 0 -12583334.903 14569111.740 -16713329.535 10 0 60789 17100.00000 0 -11941003.814 12471730.672 -18756715.091 10 0 60789 18000.00000 0 -11410639.554 10107988.481 -20435201.891 10 0 60789 18900.00000 0 -11031830.989 7531100.797 -21716179.852 10 0 60789 19800.00000 0 -10834363.394 4802070.132 -22574787.315 10 0 60789 20700.00000 0 -10836894.366 1987379.294 -22994391.135 10 0 60789 21600.00000 0 -11046117.251 -843539.024 -22966905.369 10 0 60789 22500.00000 0 -11456447.112 -3620951.438 -22492942.845 10 0 60789 23400.00000 0 -12050242.061 -6277481.995 -21581797.221 10 0 60789 24300.00000 0 -12798550.255 -8750669.289 -20251256.331 10 0 60789 25200.00000 0 -13662350.692 -10985317.004 -18527250.784 10 0 60789 26100.00000 0 -14594235.227 -12935541.042 -16443344.891 10 0 60789 27000.00000 0 -15540460.684 -14566429.181 -14040080.011 10 0 60789 27900.00000 0 -16443284.407 -15855245.488 -11364183.096 10 0 60789 28800.00000 0 -17243484.693 -16792130.633 -8467655.994 10 0 60789 29700.00000 0 -17882959.722 -17380270.450 -5406763.211 10 0 60789 30600.00000 0 -18307295.452 -17635527.398 -2240938.000 10 0 60789 31500.00000 0 -18468194.100 -17585551.822 968371.853 10 0 60789 32400.00000 0 -18325660.756 -17268411.791 4158895.979 10 0 60789 33300.00000 0 -17849855.993 -16730800.416 7268747.822 10 0 60789 34200.00000 0 -17022536.289 -16025897.061 10237622.013 10 0 60789 35100.00000 0 -15838021.509 -15210973.168 13007959.566 10 0 60789 36000.00000 0 -14303648.423 -14344843.872 15526058.580 10 0 60789 36900.00000 0 -12439690.745 -13485272.749 17743109.274 10 0 60789 37800.00000 0 -10278748.329 -12686438.717 19616133.924 10 0 60789 38700.00000 0 -7864630.133 -11996571.247 21108814.165 10 0 60789 39600.00000 0 -5250776.427 -11455852.827 22192190.358 10 0 60789 40500.00000 0 -2498284.665 -11094676.294 22845220.152 10 0 60789 41400.00000 0 326380.365 -10932329.869 23055185.975 10 0 60789 42300.00000 0 3153898.471 -10976164.913 22817943.833 10 0 60789 43200.00000 0 5914725.307 -11221281.428 22138008.608 10 0 60789 44100.00000 0 8541735.171 -11650744.876 21028473.889 10 0 60789 45000.00000 0 10972766.873 -12236325.829 19510767.229 10 0 60789 45900.00000 0 13152967.913 -12939732.180 17614244.710 10 0 60789 46800.00000 0 15036840.260 -13714282.977 15375631.602 10 0 60789 47700.00000 0 16589902.984 -14506954.268 12838318.900 10 0 60789 48600.00000 0 17789902.649 -15260711.436 10051528.377 10 0 60789 49500.00000 0 18627520.993 -15917030.009 7069361.567 10 0 60789 50400.00000 0 19106550.276 -16418498.589 3949750.683 10 0 60789 51300.00000 0 19243529.038 -16711393.514 753331.696 10 0 60789 52200.00000 0 19066853.741 -16748115.719 -2457738.276 10 0 60789 53100.00000 0 18615404.079 -16489385.640 -5620995.709 10 0 60789 54000.00000 0 17936740.418 -15906102.096 -8674893.103 10 0 60789 54900.00000 0 17084950.201 -14980785.171 -11560004.405 10 0 60789 55800.00000 0 16118235.064 -13708540.710 -14220188.936 10 0 60789 56700.00000 0 15096341.494 -12097504.432 -16603690.371 10 0 60789 57600.00000 0 14077944.397 -10168745.737 -18664148.668 10 0 60789 58500.00000 0 13118094.759 -7955634.233 -20361504.848 10 0 60789 59400.00000 0 12265839.635 -5502694.796 -21662780.866 10 0 60789 60300.00000 0 11562115.101 -2863998.412 -22542719.552 10 0 60789 61200.00000 0 11038000.945 -101155.639 -22984272.481 10 0 60789 62100.00000 0 10713410.356 2719004.015 -22978926.756 10 0 60789 63000.00000 0 10596269.255 5526970.506 -22526864.911 10 0 60789 63900.00000 0 10682219.173 8253204.155 -21636955.331 10 0 60789 64800.00000 0 10954855.415 10830789.298 -20326573.827 10 0 60789 65700.00000 0 11386489.710 13197980.921 -18621260.200 10 0 60789 66600.00000 0 11939404.503 15300539.098 -16554216.707 10 0 60789 67500.00000 0 12567545.373 17093754.984 -14165658.351 10 0 60789 68400.00000 0 13218579.696 18544085.051 -11502027.697 10 0 60789 69300.00000 0 13836234.282 19630326.598 -8615089.594 10 0 60789 70200.00000 0 14362812.994 20344286.784 -5560923.476 10 0 60789 71100.00000 0 14741787.876 20690918.665 -2398832.943 10 0 60789 72000.00000 0 14920354.192 20687919.906 809806.008 10 0 60789 72900.00000 0 14851841.422 20364812.446 4002735.574 10 0 60789 73800.00000 0 14497878.283 19761542.866 7118022.361 10 0 60789 74700.00000 0 13830220.352 18926663.403 10095255.706 10 0 60789 75600.00000 0 12832163.116 17915170.900 12876714.930 10 0 60789 76500.00000 0 11499480.594 16786094.910 15408483.181 10 0 60789 77400.00000 0 9840849.589 15599936.527 17641486.614 10 0 60789 78300.00000 0 7877741.081 14416065.416 19532439.391 10 0 60789 79200.00000 0 5643782.321 13290183.952 21044676.873 10 0 60789 80100.00000 0 3183615.145 12271964.331 22148861.578 10 0 60789 81000.00000 0 551296.694 11402957.107 22823548.929 10 0 60789 81900.00000 0 -2191692.432 10714858.190 23055602.385 10 0 60789 82800.00000 0 -4978751.353 10228206.422 22840450.222 10 0 60789 83700.00000 0 -7740679.437 9951565.986 22182179.005 10 0 60789 84600.00000 0 -10408311.054 9881227.804 21093461.643 10 0 60789 85500.00000 0 -12915156.497 10001442.623 19595320.784 10 0 60790 0.00000 0 -15199940.288 10285176.331 17716731.471 10 0 60790 900.00000 0 -17208933.318 10695356.448 15494068.588 10 0 60790 1800.00000 0 -18897979.199 11186557.500 12970411.369 10 0 60790 2700.00000 0 -20234134.590 11707055.272 10194714.070 10 0 60790 3600.00000 0 -21196851.880 12201163.252 7220860.501 10 0 60790 4500.00000 0 -21778655.835 12611752.731 4106619.373 10 0 60790 5400.00000 0 -21985285.449 12882849.734 912520.724 10 0 60790 6300.00000 0 -21835294.973 12962198.240 -2299324.531 10 0 60790 7200.00000 0 -21359130.961 12803680.241 -5466438.384 10 0 60790 8100.00000 0 -20597724.472 12369488.976 -8527198.450 10 0 60790 9000.00000 0 -19600658.276 11631961.988 -11422044.887 10 0 60790 9900.00000 0 -18423987.004 10574995.015 -14094647.021 10 0 60790 10800.00000 0 -17127802.993 9194975.590 -16493006.109 10 0 60790 11700.00000 0 -15773651.244 7501195.595 -18570472.103 10 0 60790 12600.00000 0 -14421903.201 5515724.221 -20286654.187 10 0 60790 13500.00000 0 -13129200.516 3272745.680 -21608207.207 10 0 60790 14400.00000 0 -11946076.683 817388.545 -22509478.853 10 0 60790 15300.00000 0 -10914856.615 -1795904.911 -22973005.282 10 0 60790 16200.00000 0 -10067922.141 -4505401.830 -22989846.044 10 0 60790 17100.00000 0 -9426415.711 -7244410.435 -22559752.315 10 0 60790 18000.00000 0 -8999435.957 -9943823.514 -21691165.712 10 0 60790 18900.00000 0 -8783757.889 -12534768.282 -20401048.144 10 0 60790 19800.00000 0 -8764088.372 -14951252.900 -18714546.391 10 0 60790 20700.00000 0 -8913845.055 -17132700.021 -16664498.165 10 0 60790 21600.00000 0 -9196424.853 -19026262.616 -14290789.444 10 0 60790 22500.00000 0 -9566907.628 -20588826.429 -11639575.625 10 0 60790 23400.00000 0 -9974122.367 -21788616.382 -8762381.763 10 0 60790 24300.00000 0 -10362988.027 -22606341.006 -5715099.462 10 0 60790 25200.00000 0 -10677029.687 -23035828.192 -2556900.020 10 0 60790 26100.00000 0 -10860963.320 -23084126.812 650914.858 10 0 60790 27000.00000 0 -10863239.711 -22771071.137 3846102.330 10 0 60790 27900.00000 0 -10638439.822 -22128327.434 6966684.437 10 0 60790 28800.00000 0 -10149420.311 -21197963.831 9952147.357 10 0 60790 29700.00000 0 -9369118.477 -20030604.203 12744610.737 10 0 60790 30600.00000 0 -8281940.258 -18683244.137 15289944.639 10 0 60790 31500.00000 0 -6884672.492 -17216820.865 17538812.837 10 0 60790 32400.00000 0 -5186880.417 -15693638.993 19447622.837 10 0 60790 33300.00000 0 -3210772.889 -14174759.593 20979364.916 10 0 60790 34200.00000 0 -990539.819 -12717461.453 22104324.640 10 0 60790 35100.00000 0 1428811.870 -11372880.017 22800655.788 10 0 60790 36000.00000 0 3993076.838 -10183921.986 23054803.116 10 0 60790 36900.00000 0 6640858.777 -9183542.046 22861767.130 10 0 60790 37800.00000 0 9305884.945 -8393453.136 22225205.745 10 0 60790 38700.00000 0 11919533.314 -7823323.754 21157370.584 10 0 60790 39600.00000 0 14413468.752 -7470495.638 19678878.528 10 0 60790 40500.00000 0 16722279.903 -7320233.632 17818322.070 10 0 60790 41400.00000 0 18786007.988 -7346497.359 15611724.974 10 0 60790 42300.00000 0 20552462.703 -7513202.533 13101852.689 10 0 60790 43200.00000 0 21979228.851 -7775919.053 10337389.900 10 0 60790 44100.00000 0 23035279.772 -8083934.451 7372000.300 10 0 60790 45000.00000 0 23702129.748 -8382595.535 4263286.370 10 0 60790 45900.00000 0 23974476.696 -8615828.967 1071669.192 10 0 60790 46800.00000 0 23860307.809 -8728733.497 -2140789.746 10 0 60790 47700.00000 0 23380463.447 -8670133.231 -5311601.282 10 0 60790 48600.00000 0 22567677.603 -8394982.635 -8379071.452 10 0 60790 49500.00000 0 21465135.516 -7866520.093 -11283509.800 10 0 60790 50400.00000 0 20124609.639 -7058077.453 -13968398.592 10 0 60790 51300.00000 0 18604253.010 -5954467.549 -16381499.303 10 0 60790 52200.00000 0 16966143.665 -4552889.741 -18475874.176 10 0 60790 53100.00000 0 15273684.067 -2863313.980 -20210802.477 10 0 60790 54000.00000 0 13588965.487 -908326.115 -21552573.478 10 0 60790 54900.00000 0 11970208.384 1277560.059 -22475140.854 10 0 60790 55800.00000 0 10469386.343 3649095.961 -22960626.051 10 0 60790 56700.00000 0 9130132.979 6151947.345 -22999661.330 10 0 60790 57600.00000 0 7986018.990 8724731.059 -22591566.330 10 0 60790 58500.00000 0 7059270.725 11301354.923 -21744355.273 10 0 60790 59400.00000 0 6359982.845 13813563.649 -20474575.107 10 0 60790 60300.00000 0 5885856.799 16193585.143 -18806978.112 10 0 60790 61200.00000 0 5622474.701 18376767.434 -16774035.591 10 0 60790 62100.00000 0 5544095.665 20304096.820 -14415302.250 10 0 60790 63000.00000 0 5614939.782 21924492.850 -11776643.739 10 0 60790 63900.00000 0 5790904.417 23196785.035 -8909342.442 10 0 60790 64800.00000 0 6021639.433 24091289.498 -5869099.017 10 0 60790 65700.00000 0 6252892.878 24590920.470 -2714949.154 10 0 60790 66600.00000 0 6429027.416 24691791.139 491883.141 10 0 60790 67500.00000 0 6495600.668 24403279.518 3689173.376 10 0 60790 68400.00000 0 6401900.056 23747557.516 6814902.304 10 0 60790 69300.00000 0 6103324.802 22758603.865 9808456.051 10 0 60790 70200.00000 0 5563514.314 21480743.031 12611797.418 10 0 60790 71100.00000 0 4756132.908 19966771.832 15170585.911 10 0 60790 72000.00000 0 3666235.389 18275752.494 17435225.110 10 0 60790 72900.00000 0 2291155.492 16470564.569 19361817.719 10 0 60790 73800.00000 0 640879.168 14615317.804 20913010.444 10 0 60790 74700.00000 0 -1262113.915 12772733.607 22058713.070 10 0 60790 75600.00000 0 -3383535.311 11001603.719 22776678.532 10 0 60790 76500.00000 0 -5678472.059 9354431.300 23052933.308 10 0 60790 77400.00000 0 -8093022.577 7875351.992 22882050.133 10 0 60790 78300.00000 0 -10566317.775 6598420.843 22267257.815 10 0 60790 79200.00000 0 -13032845.086 5546335.839 21220385.740 10 0 60790 80100.00000 0 -15424980.240 4729650.832 19761643.551 10 0 60790 81000.00000 0 -17675622.807 4146510.394 17919239.401 10 0 60790 81900.00000 0 -19720826.818 3782917.481 15728843.122 10 0 60790 82800.00000 0 -21502317.398 3613522.648 13232903.649 10 0 60790 83700.00000 0 -22969788.650 3602901.624 10479832.867 10 0 60790 84600.00000 0 -24082886.660 3707267.428 7523070.893 10 0 60790 85500.00000 0 -24812794.160 3876544.680 4420050.395 10 0 60791 0.00000 0 -25143349.876 4056718.126 1231080.187 10 0 60791 900.00000 0 -25071655.012 4192355.567 -1981831.800 10 0 60791 1800.00000 0 -24608140.498 4229197.286 -5156188.393 10 0 60791 2700.00000 0 -23776092.329 4116701.576 -8230227.301 10 0 60791 3600.00000 0 -22610654.291 3810436.991 -11144130.496 10 0 60791 4500.00000 0 -21157350.386 3274218.745 -13841195.946 10 0 60791 5400.00000 0 -19470189.391 2481897.413 -16268947.775 10 0 60791 6300.00000 0 -17609431.751 1418722.935 -18380162.523 10 0 60791 7200.00000 0 -15639113.187 82225.056 -20133791.062 10 0 60791 8100.00000 0 -13624429.533 -1517428.070 -21495758.061 10 0 60791 9000.00000 0 -11629092.799 -3357609.194 -22439623.567 10 0 60791 9900.00000 0 -9712769.430 -5403942.564 -22947094.103 10 0 60791 10800.00000 0 -7928707.822 -7611516.692 -23008373.851 10 0 60791 11700.00000 0 -6321653.864 -9926549.176 -22622349.604 10 0 60791 12600.00000 0 -4926140.901 -12288434.473 -21796606.400 10 0 60791 13500.00000 0 -3765224.507 -14632089.543 -20547274.041 10 0 60791 14400.00000 0 -2849713.648 -16890499.890 -18898707.800 10 0 60791 15300.00000 0 -2177928.922 -18997360.115 -16883009.815 10 0 60791 16200.00000 0 -1735996.348 -20889699.172 -14539400.622 10 0 60791 17100.00000 0 -1498662.779 -22510381.174 -11913453.148 10 0 60791 18000.00000 0 -1430597.078 -23810377.697 -9056204.153 10 0 60791 18900.00000 0 -1488120.905 -24750717.105 -6023160.458 10 0 60791 19800.00000 0 -1621294.896 -25304029.988 -2873219.421 10 0 60791 20700.00000 0 -1776271.260 -25455626.600 332475.216 10 0 60791 21600.00000 0 -1897812.643 -25204061.793 3531719.701 10 0 60791 22500.00000 0 -1931870.288 -24561164.552 6662455.713 10 0 60791 23400.00000 0 -1828112.159 -23551531.464 9663971.348 10 0 60791 24300.00000 0 -1542294.005 -22211505.983 12478074.421 10 0 60791 25200.00000 0 -1038373.069 -20587686.602 15050215.545 10 0 60791 26100.00000 0 -290275.113 -18735026.606 17330539.590 10 0 60791 27000.00000 0 716760.004 -16714604.817 19274845.703 10 0 60791 27900.00000 0 1985311.265 -14591160.160 20845438.018 10 0 60791 28800.00000 0 3505425.113 -12430492.424 22011851.264 10 0 60791 29700.00000 0 5254795.505 -10296836.839 22751437.986 10 0 60791 30600.00000 0 7199469.190 -8250320.906 23049806.551 10 0 60791 31500.00000 0 9295048.278 -6344608.450 22901101.830 10 0 60791 32400.00000 0 11488341.606 -4624827.985 22308123.183 10 0 60791 33300.00000 0 13719397.827 -3125870.746 21282277.186 10 0 60791 34200.00000 0 15923837.103 -1871128.596 19843365.446 10 0 60791 35100.00000 0 18035385.696 -871723.819 18019210.751 10 0 60791 36000.00000 0 19988508.934 -126262.566 15845127.757 10 0 60791 36900.00000 0 21721033.406 378878.023 13363247.359 10 0 60791 37800.00000 0 23176649.179 668741.274 10621706.848 10 0 60791 38700.00000 0 24307187.305 778495.189 7673720.659 10 0 60791 39600.00000 0 25074576.762 751704.239 4576549.239 10 0 60791 40500.00000 0 25452398.055 638242.029 1390385.858 10 0 60791 41400.00000 0 25426967.428 491933.665 -1822816.875 10 0 60791 42300.00000 0 24997905.242 368028.320 -5000557.392 10 0 60791 43200.00000 0 24178163.904 320610.081 -8081008.169 10 0 60791 44100.00000 0 22993513.617 400057.887 -11004226.598 10 0 60791 45000.00000 0 21481507.325 650663.490 -13713329.175 10 0 60791 45900.00000 0 19689968.325 1108509.604 -16155605.239 10 0 60791 46800.00000 0 17675064.294 1799699.330 -18283547.918 10 0 60791 47700.00000 0 15499048.925 2739012.903 -20055781.676 10 0 60791 48600.00000 0 13227766.243 3929049.543 -21437868.268 10 0 60791 49500.00000 0 10928022.456 5359891.525 -22402975.496 10 0 60791 50400.00000 0 8664935.458 7009305.427 -22932396.050 10 0 60791 51300.00000 0 6499372.701 8843472.748 -23015906.790 10 0 60791 52200.00000 0 4485584.037 10818219.875 -22651962.044 10 0 60791 53100.00000 0 2669127.686 12880696.282 -21847717.664 10 0 60791 54000.00000 0 1085174.883 14971431.178 -20618885.870 10 0 60791 54900.00000 0 -242737.322 17026682.917 -18989424.051 10 0 60791 55800.00000 0 -1303454.500 18980983.256 -16991063.860 10 0 60791 56700.00000 0 -2098424.918 20769770.365 -14662689.907 10 0 60791 57600.00000 0 -2641383.799 22332000.791 -12049580.243 10 0 60791 58500.00000 0 -2957516.772 23612631.354 -9202523.469 10 0 60791 59400.00000 0 -3082139.326 24564867.402 -6176829.738 10 0 60791 60300.00000 0 -3058949.378 25152083.655 -3031254.973 10 0 60791 61200.00000 0 -2937927.876 25349337.484 173140.615 10 0 60791 62100.00000 0 -2772977.049 25144411.661 3374177.362 10 0 60791 63000.00000 0 -2619396.801 24538343.213 6509761.208 10 0 60791 63900.00000 0 -2531306.419 23545416.643 9519085.489 10 0 60791 64800.00000 0 -2559120.815 22192622.281 12343806.134 10 0 60791 65700.00000 0 -2747188.059 20518602.538 14929167.771 10 0 60791 66600.00000 0 -3131687.980 18572130.294 17225059.199 10 0 60791 67500.00000 0 -3738880.550 16410182.855 19186978.387 10 0 60791 68400.00000 0 -4583778.035 14095691.508 20776888.974 10 0 60791 69300.00000 0 -5669297.189 11695059.909 21963952.404 10 0 60791 70200.00000 0 -6985927.775 9275553.854 22725122.253 10 0 60791 71100.00000 0 -8511932.304 6902670.043 23045589.821 10 0 60791 72000.00000 0 -10214069.930 4637592.209 22919072.724 10 0 60791 72900.00000 0 -12048815.686 2534839.266 22347941.001 10 0 60791 73800.00000 0 -13964025.799 640202.200 21343178.015 10 0 60791 74700.00000 0 -15900981.132 -1010945.351 19924176.373 10 0 60791 75600.00000 0 -17796724.940 -2394893.267 18118371.954 10 0 60791 76500.00000 0 -19586598.548 -3500346.492 15960722.120 10 0 60791 77400.00000 0 -21206869.848 -4328650.980 13493037.101 10 0 60791 78300.00000 0 -22597345.123 -4893484.956 10763176.515 10 0 60791 79200.00000 0 -23703854.832 -5220028.699 7824125.685 10 0 60791 80100.00000 0 -24480508.732 -5343648.100 4732969.166 10 0 60791 81000.00000 0 -24891624.921 -5308147.853 1549781.168 10 0 60791 81900.00000 0 -24913250.813 -5163668.587 -1663545.432 10 0 60791 82800.00000 0 -24534210.983 -4964317.566 -4844508.178 10 0 60791 83700.00000 0 -23756636.784 -4765634.165 -7931217.962 10 0 60791 84600.00000 0 -22595954.559 -4621998.536 -10863611.077 10 0 60791 85500.00000 0 -21080332.274 -4584094.416 -13584625.761 99